Zurück zum Katalog

HULIANWANG DIGUI-167

AktivKommunikationPO
NORAD 68659·PAYLOAD·🇨🇳 China

Gestartet Apr 8, 2026 von Taiyuan Satellite Launch Center

Loading…

Nächste Überflüge (nächste 24 Stunden)

TLE

AktuellSource: Space-Track

Epoche: Sep 14, 2026, 13:16 UTC

1 68659U 26076D   26257.55312613  .00000007  00000-0 -16899-4 0  9998
2 68659  86.5043  13.7147 0001293 108.7428 251.3847 13.24410207 21209

Verfolge HULIANWANG DIGUI-167 in Echtzeit mit AllMySat

Download on the App Store